Bismarck, ND

11:21 PM CDT on March 25, 2017 (GMT -0500)
Bismarck Municipal

Weather History for KBIS - February, 2013

Change the Weather History Date:

Sunday, February 10, 2013

  Actual Average Record
Temperature  
Mean Temperature 24 °F 16 °F  
Max Temperature 29 °F 27 °F 54 °F (1918)
Min Temperature 19 °F 6 °F -31 °F (1899)
Degree Days  
Heating Degree Days 41 49  
Month to date heating degree days 437 497  
Since 1 July heating degree days 5543 5615  
Cooling Degree Days 0 0  
Month to date cooling degree days 0 0  
Year to date cooling degree days 0 0  
Moisture  
Dew Point 20 °F    
Average Humidity 89    
Maximum Humidity 100    
Minimum Humidity 77    
Precipitation  
Precipitation T in 0.01 in 0.22 in (1938)
Month to date precipitation 0.09 0.13  
Year to date precipitation 0.34 0.56  
Snow  
Snow T in 0.20 in 3.00 in (1992)
Month to date snowfall 1.0 2.5  
Since 1 July snowfall 26.1 31.9  
Snow Depth 3.00 in    
Sea Level Pressure  
Sea Level Pressure 29.83 in    
Wind  
Wind Speed 14 mph (NNW)    
Max Wind Speed 28 mph    
Max Gust Speed 37 mph    
Visibility 8 miles    
Events      
T = Trace of Precipitation, MM = Missing Value Source: NWS Daily Summary

Daily Weather History Graph

Daily Weather History Graph

Search for Another Location

Airport or City:

Trip Planner

Search our weather history database for the weather conditions in past years. The results will help you decide how hot, cold, wet, or windy it might be!

Date:

Astronomy

Feb. 10, 2013 Rise Set
Actual Time 7:54 AM CST 6:00 PM CST
Civil Twilight 7:22 AM CST 6:32 PM CST
Nautical Twilight 6:47 AM CST 7:08 PM CST
Astronomical Twilight 6:11 AM CST 7:43 PM CST
Moon 7:40 AM CST (2/10) 7:00 PM CST (2/10)
Length of Visible Light 11h 09m
Length of Day
10h 06m
New Moon, 0% of the Moon is Illuminated
Feb 10
New Moon
Feb 17
First Quarter
Feb 25
Full
Mar 4
Last Quarter
Mar 11
New

Hourly Weather History & Observations

Time (CST) Temp. Windchill Dew Point Humidity Pressure Visibility Wind Dir Wind Speed Gust Speed Precip Events Conditions
12:00 AM 21.0 °F 12.4 °F 19.9 °F 96% 29.79 in 2.0 mi North 6.9 mph - N/A   Overcast
12:18 AM 21.0 °F 13.4 °F 19.0 °F 92% 29.80 in 4.0 mi NNE 5.8 mph - N/A   Overcast
12:43 AM 21.0 °F 13.4 °F 19.0 °F 92% 29.79 in 2.5 mi ENE 5.8 mph - N/A   Overcast
12:52 AM 19.9 °F 12.1 °F 19.0 °F 96% 29.87 in 4.0 mi ENE 5.8 mph - N/A   Overcast
1:52 AM 19.9 °F 11.1 °F 18.0 °F 92% 29.84 in 10.0 mi NNE 6.9 mph - N/A   Overcast
2:52 AM 19.9 °F 13.4 °F 18.0 °F 92% 29.83 in 10.0 mi North 4.6 mph - N/A   Overcast
2:59 AM 19.9 °F 13.4 °F 18.0 °F 92% 29.75 in 10.0 mi NNW 4.6 mph - N/A   Overcast
3:52 AM 19.9 °F 11.1 °F 18.0 °F 92% 29.83 in 10.0 mi ESE 6.9 mph - N/A   Overcast
4:52 AM 19.0 °F 13.9 °F 17.1 °F 92% 29.83 in 10.0 mi ENE 3.5 mph - N/A   Overcast
5:52 AM 19.9 °F 13.4 °F 17.1 °F 89% 29.83 in 10.0 mi North 4.6 mph - N/A   Overcast
6:02 AM 19.9 °F 12.1 °F 17.1 °F 89% 29.75 in 10.0 mi North 5.8 mph - N/A   Overcast
6:52 AM 19.9 °F 8.6 °F 17.1 °F 89% 29.83 in 10.0 mi NNW 10.4 mph - N/A   Overcast
7:52 AM 19.9 °F 8.6 °F 17.1 °F 89% 29.83 in 6.0 mi NW 10.4 mph - N/A   Scattered Clouds
8:07 AM 19.9 °F 7.3 °F 17.1 °F 89% 29.75 in 5.0 mi NNW 12.7 mph - N/A   Mostly Cloudy
8:52 AM 21.9 °F 11.7 °F 18.0 °F 85% 29.82 in 10.0 mi North 9.2 mph - N/A   Overcast
9:25 AM 23.0 °F 9.6 °F 18.0 °F 81% 29.73 in 10.0 mi NNW 16.1 mph 23.0 mph N/A   Overcast
9:36 AM 23.0 °F 10.1 °F 19.0 °F 85% 29.73 in 10.0 mi NW 15.0 mph - N/A   Overcast
9:52 AM 24.1 °F 10.1 °F 19.9 °F 84% 29.81 in 10.0 mi NW 18.4 mph 24.2 mph N/A   Overcast
10:21 AM 24.1 °F 9.0 °F 21.0 °F 88% 29.72 in 9.0 mi NNW 21.9 mph 28.8 mph N/A   Overcast
10:43 AM 26.1 °F 12.3 °F 21.9 °F 84% 29.71 in 9.0 mi NW 19.6 mph - N/A   Overcast
10:52 AM 27.0 °F 13.2 °F 23.0 °F 85% 29.79 in 9.0 mi NNW 20.7 mph 29.9 mph N/A   Mostly Cloudy
11:01 AM 26.1 °F 11.6 °F 21.9 °F 84% 29.72 in 9.0 mi NNW 21.9 mph - N/A   Overcast
11:14 AM 26.1 °F 10.7 °F 23.0 °F 88% 29.71 in 8.0 mi NNW 25.3 mph 29.9 mph N/A   Overcast
11:52 AM 28.0 °F 15.7 °F 25.0 °F 88% 29.80 in 4.0 mi NNW 17.3 mph 27.6 mph N/A   Overcast
12:27 PM 28.9 °F 15.8 °F 24.1 °F 82% 29.72 in 10.0 mi NNW 20.7 mph 28.8 mph N/A   Overcast
12:52 PM 28.9 °F 14.8 °F 23.0 °F 78% 29.79 in 10.0 mi North 24.2 mph 31.1 mph N/A   Mostly Cloudy
1:52 PM 28.0 °F 15.7 °F 24.1 °F 85% 29.82 in 9.0 mi North 17.3 mph 28.8 mph N/A   Overcast
2:28 PM 28.0 °F 14.6 °F 21.0 °F 75% 29.73 in 10.0 mi North 20.7 mph 27.6 mph N/A   Mostly Cloudy
2:52 PM 27.0 °F 12.5 °F 21.0 °F 78% 29.82 in 10.0 mi North 23.0 mph 31.1 mph N/A   Overcast
3:07 PM 27.0 °F 12.2 °F 21.9 °F 81% 29.74 in 10.0 mi NNW 24.2 mph 32.2 mph N/A   Overcast
3:52 PM 27.0 °F 12.8 °F 21.9 °F 81% 29.83 in 10.0 mi North 21.9 mph 32.2 mph N/A   Overcast
4:27 PM 27.0 °F 12.5 °F 23.0 °F 85% 29.78 in 7.0 mi North 23.0 mph 32.2 mph N/A   Overcast
4:52 PM 26.1 °F 12.7 °F 23.0 °F 88% 29.87 in 5.0 mi North 18.4 mph 28.8 mph N/A   Overcast
5:52 PM 26.1 °F 12.3 °F 21.9 °F 84% 29.89 in 6.0 mi NNW 19.6 mph 35.7 mph N/A   Overcast
6:52 PM 25.0 °F 9.5 °F 19.9 °F 81% 29.92 in 10.0 mi NW 24.2 mph 31.1 mph 0.00 in   Overcast
7:52 PM 24.1 °F 10.6 °F 19.0 °F 81% 29.94 in 10.0 mi NW 17.3 mph 25.3 mph N/A   Overcast
8:52 PM 21.9 °F 9.2 °F 17.1 °F 82% 29.97 in 10.0 mi NW 13.8 mph 26.5 mph N/A   Overcast
9:12 PM 21.0 °F 6.6 °F 16.0 °F 81% 29.89 in 10.0 mi NNW 17.3 mph 26.5 mph N/A   Overcast
9:52 PM 21.0 °F 7.1 °F 16.0 °F 81% 29.98 in 10.0 mi NW 16.1 mph 25.3 mph N/A   Overcast
10:05 PM 19.9 °F 4.8 °F 15.1 °F 81% 29.91 in 10.0 mi NNW 18.4 mph 25.3 mph N/A   Overcast
10:31 PM 19.0 °F 2.4 °F 16.0 °F 88% 29.91 in 9.0 mi NW 21.9 mph 31.1 mph N/A   Overcast
10:52 PM 19.0 °F 5.0 °F 17.1 °F 92% 30.01 in 7.0 mi NNW 15.0 mph 23.0 mph N/A   Overcast
11:52 PM 19.9 °F 5.2 °F 16.0 °F 85% 30.03 in 9.0 mi NNW 17.3 mph 23.0 mph N/A   Overcast